AMX505 MMUN-MMMX

Flight info

Callsign AMX505
Flight time 1h 57m
Altitude 36000
Route UDGUV1F UDGUV UT78 MEDOS UT20 UBVOV UT101 ENAGA ENAGA3A
Aircraft B38M/M-SDE1FGHILORVWXY/HB1

Departure

Time 2026-05-03 22:37
Airport Cancún International Airport (MMUN)

Arrival

Time 2026-05-04 00:35
Airport Mexico City Benito Juárez International Airport (MMMX)
Time Latitude Longitude Altitude Speed Heading
2026-05-03 22:01 21.04738 -86.88324 31 ft 0 kts 123°
2026-05-03 22:28 21.04744 -86.88334 31 ft 4 kts 124°
2026-05-03 22:28 21.04760 -86.88356 31 ft 4 kts 140°
2026-05-03 22:28 21.04782 -86.88366 31 ft 4 kts 187°
2026-05-03 22:29 21.04801 -86.88358 31 ft 1 kts 213°
2026-05-03 22:29 21.04804 -86.88356 31 ft 0 kts 213°
2026-05-03 22:32 21.04797 -86.88361 31 ft 2 kts 213°
2026-05-03 22:32 21.04780 -86.88373 31 ft 4 kts 213°
2026-05-03 22:32 21.04752 -86.88393 31 ft 6 kts 213°
2026-05-03 22:33 21.04715 -86.88419 31 ft 7 kts 213°
2026-05-03 22:33 21.04669 -86.88452 31 ft 9 kts 214°
2026-05-03 22:33 21.04614 -86.88492 31 ft 10 kts 214°
2026-05-03 22:33 21.04550 -86.88537 32 ft 12 kts 213°
2026-05-03 22:34 21.04494 -86.88577 32 ft 2 kts 213°
2026-05-03 22:34 21.04493 -86.88577 32 ft 0 kts 213°
2026-05-03 22:34 21.04492 -86.88578 32 ft 1 kts 213°
2026-05-03 22:34 21.04484 -86.88584 32 ft 2 kts 213°
2026-05-03 22:35 21.04471 -86.88593 32 ft 3 kts 213°
2026-05-03 22:35 21.04452 -86.88606 33 ft 4 kts 213°
2026-05-03 22:35 21.04445 -86.88641 33 ft 9 kts 292°
2026-05-03 22:35 21.04497 -86.88728 33 ft 16 kts 304°
2026-05-03 22:36 21.04564 -86.88834 33 ft 18 kts 304°
2026-05-03 22:36 21.04633 -86.88943 32 ft 14 kts 300°
2026-05-03 22:36 21.04607 -86.89029 33 ft 13 kts 215°
2026-05-03 22:36 21.04526 -86.89073 34 ft 13 kts 167°
2026-05-03 22:37 21.04460 -86.88982 35 ft 27 kts 124°
2026-05-03 22:37 21.04199 -86.88565 37 ft 107 kts 124°
2026-05-03 22:37 21.03653 -86.87699 108 ft 164 kts 124°
2026-05-03 22:37 21.02974 -86.86640 890 ft 178 kts 125°
2026-05-03 22:38 21.02300 -86.85521 2003 ft 183 kts 123°
2026-05-03 22:38 21.01330 -86.84539 2325 ft 203 kts 158°
2026-05-03 22:38 20.99919 -86.84459 2360 ft 214 kts 199°
2026-05-03 22:38 20.98594 -86.85297 2420 ft 228 kts 212°
2026-05-03 22:39 20.97251 -86.86236 2369 ft 232 kts 211°
2026-05-03 22:39 20.95847 -86.87205 2444 ft 249 kts 211°
2026-05-03 22:39 20.94469 -86.88359 2511 ft 256 kts 229°
2026-05-03 22:39 20.93648 -86.90065 2626 ft 264 kts 253°
2026-05-03 22:40 20.93309 -86.92009 2748 ft 267 kts 258°
2026-05-03 22:40 20.92997 -86.93971 2900 ft 269 kts 258°
2026-05-03 22:40 20.92695 -86.95943 2957 ft 268 kts 258°
2026-05-03 22:40 20.92401 -86.97909 2988 ft 267 kts 259°
2026-05-03 22:41 20.92115 -86.99873 3224 ft 264 kts 259°
2026-05-03 22:41 20.91832 -87.01823 4138 ft 269 kts 261°
2026-05-03 22:41 20.91544 -87.03809 5118 ft 272 kts 262°
2026-05-03 22:41 20.91249 -87.05828 6037 ft 276 kts 263°
2026-05-03 22:42 20.90952 -87.07870 6931 ft 280 kts 263°
2026-05-03 22:42 20.90649 -87.09949 7558 ft 285 kts 263°
2026-05-03 22:42 20.90350 -87.12042 7718 ft 284 kts 263°
2026-05-03 22:42 20.90045 -87.14127 7838 ft 284 kts 263°
2026-05-03 22:43 20.89743 -87.16209 7956 ft 284 kts 263°
2026-05-03 22:43 20.89439 -87.18295 7996 ft 284 kts 263°
2026-05-03 22:43 20.89137 -87.20379 8000 ft 284 kts 263°
2026-05-03 22:43 20.88832 -87.22464 8011 ft 283 kts 263°
2026-05-03 22:44 20.88528 -87.24546 8006 ft 284 kts 263°
2026-05-03 22:44 20.88224 -87.26628 8005 ft 284 kts 263°
2026-05-03 22:44 20.87919 -87.28713 8005 ft 283 kts 263°
2026-05-03 22:44 20.87616 -87.30792 8005 ft 283 kts 263°
2026-05-03 22:45 20.87313 -87.32871 8004 ft 283 kts 263°
2026-05-03 22:45 20.87008 -87.34950 8026 ft 283 kts 263°
2026-05-03 22:45 20.86669 -87.37010 8693 ft 281 kts 262°
2026-05-03 22:45 20.86376 -87.39074 9781 ft 284 kts 263°
2026-05-03 22:46 20.86080 -87.41207 10460 ft 297 kts 263°
2026-05-03 22:46 20.85753 -87.43458 10860 ft 315 kts 263°
2026-05-03 22:46 20.85407 -87.45817 11364 ft 327 kts 262°
2026-05-03 22:46 20.85050 -87.48238 12081 ft 330 kts 262°
2026-05-03 22:47 20.84697 -87.50644 12767 ft 334 kts 262°
2026-05-03 22:47 20.84333 -87.53109 13490 ft 337 kts 261°
2026-05-03 22:47 20.83964 -87.55596 14143 ft 341 kts 261°
2026-05-03 22:47 20.83592 -87.58112 14756 ft 344 kts 261°
2026-05-03 22:48 20.83211 -87.60677 15359 ft 347 kts 261°
2026-05-03 22:48 20.82837 -87.63201 15930 ft 350 kts 261°
2026-05-03 22:48 20.82454 -87.65778 16518 ft 353 kts 261°
2026-05-03 22:48 20.82067 -87.68382 17097 ft 356 kts 261°
2026-05-03 22:49 20.81677 -87.71003 17638 ft 359 kts 261°
2026-05-03 22:49 20.81282 -87.73649 18193 ft 362 kts 261°
2026-05-03 22:49 20.80885 -87.76314 18665 ft 365 kts 261°
2026-05-03 22:49 20.80729 -87.79047 18920 ft 375 kts 272°
2026-05-03 22:50 20.80810 -87.81862 19251 ft 380 kts 271°
2026-05-03 22:50 20.80874 -87.84685 19725 ft 382 kts 271°
2026-05-03 22:50 20.80937 -87.87535 20133 ft 384 kts 271°
2026-05-03 22:50 20.81000 -87.90397 20571 ft 386 kts 271°
2026-05-03 22:51 20.81062 -87.93277 20989 ft 389 kts 271°
2026-05-03 22:51 20.81125 -87.96172 21412 ft 391 kts 271°
2026-05-03 22:51 20.81186 -87.99085 21825 ft 393 kts 271°
2026-05-03 22:51 20.81249 -88.02016 22231 ft 396 kts 270°
2026-05-03 22:52 20.81311 -88.04965 22633 ft 398 kts 270°
2026-05-03 22:52 20.81372 -88.07935 23025 ft 400 kts 270°
2026-05-03 22:52 20.81434 -88.10914 23417 ft 403 kts 270°
2026-05-03 22:52 20.81495 -88.13921 23749 ft 405 kts 270°
2026-05-03 22:53 20.81557 -88.16939 24067 ft 407 kts 270°
2026-05-03 22:53 20.81618 -88.19970 24393 ft 409 kts 270°
2026-05-03 22:53 20.81678 -88.23018 24720 ft 411 kts 270°
2026-05-03 22:53 20.81739 -88.26078 25045 ft 413 kts 270°
2026-05-03 22:54 20.81799 -88.29152 25386 ft 415 kts 270°
2026-05-03 22:54 20.81859 -88.32241 25702 ft 417 kts 270°
2026-05-03 22:54 20.81918 -88.35347 26022 ft 419 kts 270°
2026-05-03 22:54 20.81978 -88.38463 26339 ft 421 kts 270°
2026-05-03 22:55 20.82037 -88.41595 26648 ft 423 kts 270°
2026-05-03 22:55 20.82095 -88.44743 26958 ft 424 kts 270°
2026-05-03 22:55 20.82153 -88.47900 27272 ft 426 kts 270°
2026-05-03 22:55 20.82211 -88.51072 27584 ft 428 kts 270°
2026-05-03 22:56 20.82269 -88.54260 27886 ft 430 kts 270°
2026-05-03 22:56 20.82326 -88.57464 28193 ft 432 kts 270°
2026-05-03 22:56 20.82383 -88.60678 28484 ft 434 kts 270°
2026-05-03 22:56 20.82421 -88.62815 28676 ft 435 kts 270°
2026-05-03 22:57 20.82495 -88.67103 29052 ft 437 kts 270°
2026-05-03 22:57 20.82551 -88.70357 29332 ft 439 kts 270°
2026-05-03 22:57 20.82607 -88.73630 29617 ft 441 kts 270°
2026-05-03 22:57 20.82662 -88.76909 29885 ft 442 kts 270°
2026-05-03 22:58 20.82716 -88.80203 30127 ft 444 kts 270°
2026-05-03 22:58 20.82753 -88.82436 30292 ft 445 kts 270°
2026-05-03 22:58 20.82807 -88.85753 30525 ft 447 kts 270°
2026-05-03 22:58 20.82861 -88.89079 30780 ft 449 kts 270°
2026-05-03 22:59 20.82912 -88.92377 30990 ft 451 kts 270°
2026-05-03 22:59 20.82966 -88.95773 31245 ft 451 kts 270°
2026-05-03 22:59 20.83018 -88.99125 31546 ft 451 kts 270°
2026-05-03 22:59 20.83069 -89.02473 31837 ft 451 kts 270°
2026-05-03 23:00 20.83120 -89.05823 32152 ft 450 kts 270°
2026-05-03 23:00 20.83169 -89.09156 32482 ft 448 kts 270°
2026-05-03 23:00 20.83217 -89.12432 32814 ft 447 kts 270°
2026-05-03 23:00 20.83266 -89.15758 33137 ft 446 kts 270°
2026-05-03 23:01 20.83314 -89.19073 33453 ft 445 kts 270°
2026-05-03 23:01 20.83346 -89.22379 33758 ft 445 kts 269°
2026-05-03 23:01 20.83329 -89.25680 34057 ft 444 kts 269°
2026-05-03 23:01 20.83316 -89.28979 34320 ft 443 kts 269°
2026-05-03 23:02 20.83304 -89.32269 34597 ft 442 kts 269°
2026-05-03 23:02 20.83293 -89.35550 34866 ft 441 kts 269°
2026-05-03 23:02 20.83282 -89.38828 35126 ft 440 kts 269°
2026-05-03 23:02 20.83269 -89.42092 35379 ft 439 kts 269°
2026-05-03 23:03 20.83256 -89.45354 35641 ft 438 kts 268°
2026-05-03 23:03 20.83243 -89.48608 35873 ft 437 kts 268°
2026-05-03 23:03 20.83229 -89.51859 35981 ft 437 kts 268°
2026-05-03 23:04 20.83206 -89.58329 35972 ft 434 kts 269°
2026-05-03 23:04 20.83173 -89.64778 35976 ft 434 kts 268°
2026-05-03 23:05 20.83129 -89.71234 35973 ft 434 kts 268°
2026-05-03 23:05 20.83088 -89.77696 35970 ft 435 kts 268°
2026-05-03 23:06 20.83046 -89.84153 35986 ft 435 kts 268°
2026-05-03 23:06 20.83000 -89.90614 35983 ft 435 kts 268°
2026-05-03 23:07 20.82952 -89.97077 35974 ft 434 kts 268°
2026-05-03 23:07 20.82902 -90.03530 35976 ft 434 kts 268°
2026-05-03 23:08 20.82830 -90.09989 35976 ft 434 kts 268°
2026-05-03 23:08 20.82722 -90.16445 35975 ft 434 kts 268°
2026-05-03 23:09 20.82615 -90.22901 35978 ft 434 kts 268°
2026-05-03 23:09 20.82505 -90.29351 35974 ft 434 kts 268°
2026-05-03 23:10 20.82394 -90.35806 35978 ft 434 kts 268°
2026-05-03 23:10 20.82279 -90.42260 35980 ft 434 kts 268°
2026-05-03 23:11 20.82163 -90.48705 35978 ft 434 kts 268°
2026-05-03 23:11 20.82043 -90.55162 35976 ft 434 kts 268°
2026-05-03 23:12 20.81922 -90.61616 35977 ft 434 kts 268°
2026-05-03 23:12 20.81798 -90.68071 35978 ft 435 kts 268°
2026-05-03 23:13 20.81671 -90.74533 35977 ft 435 kts 268°
2026-05-03 23:13 20.81542 -90.80993 35976 ft 435 kts 268°
2026-05-03 23:14 20.81411 -90.87453 35977 ft 435 kts 268°
2026-05-03 23:14 20.81278 -90.93874 35974 ft 435 kts 268°
2026-05-03 23:15 20.81141 -91.00376 35981 ft 435 kts 268°
2026-05-03 23:15 20.81003 -91.06788 35981 ft 435 kts 268°
2026-05-03 23:16 20.80862 -91.13245 35980 ft 434 kts 268°
2026-05-03 23:16 20.80719 -91.19697 35981 ft 434 kts 268°
2026-05-03 23:17 20.80574 -91.26150 35984 ft 434 kts 268°
2026-05-03 23:17 20.80424 -91.32595 35982 ft 434 kts 268°
2026-05-03 23:18 20.80271 -91.39046 35984 ft 434 kts 268°
2026-05-03 23:18 20.80117 -91.45494 35984 ft 434 kts 268°
2026-05-03 23:19 20.79960 -91.51944 35985 ft 434 kts 268°
2026-05-03 23:19 20.79801 -91.58394 35985 ft 434 kts 268°
2026-05-03 23:20 20.79640 -91.64845 35985 ft 434 kts 268°
2026-05-03 23:20 20.79475 -91.71293 35985 ft 434 kts 268°
2026-05-03 23:21 20.79309 -91.77740 35986 ft 434 kts 268°
2026-05-03 23:21 20.79140 -91.84192 35992 ft 434 kts 268°
2026-05-03 23:22 20.78882 -91.93865 35991 ft 434 kts 268°
2026-05-03 23:22 20.78708 -92.00309 35996 ft 434 kts 268°
2026-05-03 23:23 20.78531 -92.06715 35990 ft 434 kts 268°
2026-05-03 23:23 20.78352 -92.13162 35992 ft 434 kts 268°
2026-05-03 23:24 20.78170 -92.19612 35994 ft 434 kts 268°
2026-05-03 23:24 20.77985 -92.26056 35994 ft 434 kts 268°
2026-05-03 23:25 20.77799 -92.32499 35993 ft 434 kts 268°
2026-05-03 23:25 20.77609 -92.38945 35993 ft 434 kts 268°
2026-05-03 23:26 20.77418 -92.45385 35997 ft 434 kts 268°
2026-05-03 23:26 20.77224 -92.51822 35999 ft 434 kts 268°
2026-05-03 23:27 20.77028 -92.58261 35996 ft 433 kts 268°
2026-05-03 23:27 20.76829 -92.64698 35993 ft 433 kts 268°
2026-05-03 23:28 20.76628 -92.71134 35993 ft 433 kts 268°
2026-05-03 23:28 20.76425 -92.77568 35997 ft 433 kts 268°
2026-05-03 23:29 20.76219 -92.84000 36000 ft 433 kts 268°
2026-05-03 23:29 20.76011 -92.90438 35998 ft 433 kts 268°
2026-05-03 23:30 20.75800 -92.96864 35996 ft 433 kts 268°
2026-05-03 23:30 20.75588 -93.03294 35999 ft 433 kts 268°
2026-05-03 23:31 20.75373 -93.09722 36000 ft 433 kts 268°
2026-05-03 23:31 20.75155 -93.16154 35999 ft 433 kts 268°
2026-05-03 23:32 20.74936 -93.22581 36004 ft 433 kts 268°
2026-05-03 23:32 20.74716 -93.28969 35999 ft 433 kts 268°
2026-05-03 23:33 20.74492 -93.35396 36008 ft 433 kts 268°
2026-05-03 23:33 20.74358 -93.41831 36009 ft 433 kts 270°
2026-05-03 23:34 20.74411 -93.48263 36013 ft 433 kts 270°
2026-05-03 23:34 20.74443 -93.54698 36010 ft 433 kts 270°
2026-05-03 23:35 20.74471 -93.61131 36006 ft 433 kts 270°
2026-05-03 23:35 20.74498 -93.67569 36016 ft 433 kts 270°
2026-05-03 23:36 20.74521 -93.73998 36005 ft 433 kts 270°
2026-05-03 23:36 20.74542 -93.80430 36010 ft 433 kts 270°
2026-05-03 23:37 20.74563 -93.86843 35993 ft 430 kts 270°
2026-05-03 23:37 20.74578 -93.93228 36008 ft 430 kts 270°
2026-05-03 23:38 20.74591 -93.99609 36008 ft 430 kts 270°
2026-05-03 23:38 20.74602 -94.05993 36016 ft 430 kts 270°
2026-05-03 23:39 20.74612 -94.12375 36015 ft 429 kts 270°
2026-05-03 23:39 20.74618 -94.18750 36014 ft 429 kts 270°
2026-05-03 23:40 20.74623 -94.25131 36015 ft 429 kts 270°
2026-05-03 23:40 20.74625 -94.31504 36015 ft 429 kts 270°
2026-05-03 23:41 20.74625 -94.37836 36015 ft 429 kts 270°
2026-05-03 23:41 20.74622 -94.44205 36019 ft 429 kts 270°
2026-05-03 23:42 20.74617 -94.50575 36018 ft 429 kts 270°
2026-05-03 23:42 20.74610 -94.56944 36020 ft 429 kts 270°
2026-05-03 23:43 20.74600 -94.63311 36021 ft 428 kts 270°
2026-05-03 23:43 20.74588 -94.69677 36020 ft 428 kts 270°
2026-05-03 23:44 20.74574 -94.76039 36021 ft 428 kts 270°
2026-05-03 23:44 20.74560 -94.81331 36026 ft 428 kts 270°
2026-05-03 23:45 20.74542 -94.87696 36026 ft 428 kts 270°
2026-05-03 23:45 20.74522 -94.94059 36026 ft 429 kts 270°
2026-05-03 23:46 20.74395 -95.00425 36016 ft 429 kts 262°
2026-05-03 23:46 20.73262 -95.06690 36027 ft 430 kts 261°
2026-05-03 23:47 20.72116 -95.12968 36027 ft 431 kts 261°
2026-05-03 23:47 20.70960 -95.19246 36031 ft 431 kts 261°
2026-05-03 23:48 20.69799 -95.25529 36027 ft 431 kts 261°
2026-05-03 23:48 20.68638 -95.31806 36033 ft 431 kts 261°
2026-05-03 23:49 20.67472 -95.38089 36034 ft 431 kts 261°
2026-05-03 23:49 20.66303 -95.44375 36037 ft 432 kts 261°
2026-05-03 23:50 20.65139 -95.50623 36035 ft 432 kts 261°
2026-05-03 23:50 20.63966 -95.56908 36036 ft 432 kts 261°
2026-05-03 23:51 20.62790 -95.63196 36035 ft 432 kts 261°
2026-05-03 23:51 20.61610 -95.69486 36042 ft 432 kts 261°
2026-05-03 23:52 20.60429 -95.75778 36039 ft 432 kts 261°
2026-05-03 23:52 20.59246 -95.82063 36044 ft 432 kts 261°
2026-05-03 23:53 20.58060 -95.88351 36042 ft 432 kts 261°
2026-05-03 23:53 20.56871 -95.94636 36044 ft 432 kts 261°
2026-05-03 23:54 20.55680 -96.00924 36045 ft 432 kts 261°
2026-05-03 23:54 20.54486 -96.07218 36050 ft 433 kts 261°
2026-05-03 23:55 20.53290 -96.13514 36052 ft 433 kts 261°
2026-05-03 23:55 20.52088 -96.19806 36053 ft 433 kts 261°
2026-05-03 23:56 20.50894 -96.26054 36053 ft 433 kts 261°
2026-05-03 23:56 20.49688 -96.32349 36054 ft 433 kts 261°
2026-05-03 23:57 20.48481 -96.38643 36059 ft 433 kts 261°
2026-05-03 23:57 20.47271 -96.44939 36065 ft 434 kts 261°
2026-05-03 23:58 20.46058 -96.51233 36063 ft 433 kts 261°
2026-05-03 23:58 20.44841 -96.57533 36070 ft 434 kts 261°
2026-05-03 23:59 20.43623 -96.63831 36071 ft 434 kts 261°
2026-05-03 23:59 20.42402 -96.70130 36070 ft 434 kts 261°
2026-05-04 00:00 20.41178 -96.76431 36072 ft 434 kts 260°
2026-05-04 00:00 20.39953 -96.82729 36072 ft 434 kts 260°
2026-05-04 00:01 20.38343 -96.88943 36075 ft 436 kts 256°
2026-05-04 00:01 20.36608 -96.95141 36081 ft 436 kts 256°
2026-05-04 00:02 20.34894 -97.01343 36083 ft 436 kts 256°
2026-05-04 00:02 20.33181 -97.07547 36080 ft 437 kts 256°
2026-05-04 00:03 20.31464 -97.13753 36088 ft 437 kts 256°
2026-05-04 00:03 20.29743 -97.19966 36085 ft 437 kts 256°
2026-05-04 00:04 20.28022 -97.26171 36095 ft 437 kts 256°
2026-05-04 00:04 20.26296 -97.32380 36094 ft 437 kts 256°
2026-05-04 00:05 20.24569 -97.38589 36097 ft 438 kts 255°
2026-05-04 00:05 20.22839 -97.44797 35490 ft 438 kts 256°
2026-05-04 00:06 20.21965 -97.47949 34346 ft 451 kts 256°
2026-05-04 00:06 20.21060 -97.51184 33247 ft 459 kts 256°
2026-05-04 00:06 20.20152 -97.54421 32709 ft 454 kts 256°
2026-05-04 00:06 20.19255 -97.57628 32156 ft 450 kts 256°
2026-05-04 00:07 20.18366 -97.60804 31596 ft 446 kts 256°
2026-05-04 00:07 20.17482 -97.63961 31039 ft 444 kts 257°
2026-05-04 00:07 20.16602 -97.67097 30481 ft 441 kts 257°
2026-05-04 00:07 20.15727 -97.70219 29886 ft 440 kts 257°
2026-05-04 00:08 20.14853 -97.73333 29267 ft 437 kts 257°
2026-05-04 00:08 20.13986 -97.76421 28730 ft 434 kts 256°
2026-05-04 00:08 20.13124 -97.79485 28189 ft 431 kts 256°
2026-05-04 00:08 20.12261 -97.82544 27563 ft 431 kts 256°
2026-05-04 00:09 20.11413 -97.85535 27088 ft 427 kts 256°
2026-05-04 00:09 20.10558 -97.88554 26581 ft 425 kts 256°
2026-05-04 00:09 20.09707 -97.91555 26082 ft 423 kts 256°
2026-05-04 00:09 20.08859 -97.94546 25562 ft 422 kts 256°
2026-05-04 00:10 20.08012 -97.97530 25048 ft 421 kts 256°
2026-05-04 00:10 20.07167 -98.00508 24541 ft 420 kts 256°
2026-05-04 00:10 20.06322 -98.03480 24035 ft 420 kts 256°
2026-05-04 00:10 20.05479 -98.06448 23488 ft 419 kts 256°
2026-05-04 00:11 20.04636 -98.09409 22935 ft 417 kts 256°
2026-05-04 00:11 20.03799 -98.12350 22432 ft 414 kts 256°
2026-05-04 00:11 20.02798 -98.15226 21783 ft 419 kts 244°
2026-05-04 00:11 20.01059 -98.17729 21145 ft 425 kts 225°
2026-05-04 00:12 19.98653 -98.19554 20625 ft 428 kts 208°
2026-05-04 00:12 19.95854 -98.20655 20020 ft 430 kts 199°
2026-05-04 00:12 19.93019 -98.21668 19377 ft 431 kts 200°
2026-05-04 00:12 19.90174 -98.22695 18725 ft 432 kts 200°
2026-05-04 00:13 19.87328 -98.23719 18034 ft 432 kts 200°
2026-05-04 00:13 19.84483 -98.24743 17327 ft 431 kts 200°
2026-05-04 00:13 19.81659 -98.25759 16500 ft 424 kts 200°
2026-05-04 00:13 19.78907 -98.26749 15833 ft 411 kts 200°
2026-05-04 00:14 19.76272 -98.27698 15225 ft 399 kts 200°
2026-05-04 00:14 19.73680 -98.28630 14643 ft 388 kts 199°
2026-05-04 00:14 19.71163 -98.29536 14089 ft 376 kts 200°
2026-05-04 00:14 19.68954 -98.30842 13914 ft 352 kts 223°
2026-05-04 00:15 19.67529 -98.32810 13892 ft 326 kts 246°
2026-05-04 00:15 19.66944 -98.35043 13868 ft 306 kts 259°
2026-05-04 00:15 19.66546 -98.37182 13859 ft 288 kts 258°
2026-05-04 00:15 19.66197 -98.39252 13818 ft 283 kts 266°
2026-05-04 00:16 19.66260 -98.41299 13749 ft 278 kts 270°
2026-05-04 00:16 19.65928 -98.43356 13652 ft 292 kts 248°
2026-05-04 00:16 19.65139 -98.45400 13569 ft 308 kts 252°
2026-05-04 00:16 19.64485 -98.47628 13470 ft 325 kts 253°
2026-05-04 00:17 19.63862 -98.49989 13354 ft 336 kts 255°
2026-05-04 00:17 19.63265 -98.52402 13248 ft 341 kts 255°
2026-05-04 00:17 19.62682 -98.54844 13167 ft 342 kts 256°
2026-05-04 00:17 19.62109 -98.57290 13078 ft 342 kts 256°
2026-05-04 00:18 19.61541 -98.59741 12918 ft 342 kts 256°
2026-05-04 00:18 19.60986 -98.62163 12770 ft 333 kts 256°
2026-05-04 00:18 19.60444 -98.64522 12606 ft 324 kts 256°
2026-05-04 00:18 19.59920 -98.66810 12461 ft 315 kts 256°
2026-05-04 00:19 19.59410 -98.69038 12329 ft 307 kts 256°
2026-05-04 00:19 19.58914 -98.71203 12217 ft 297 kts 256°
2026-05-04 00:19 19.58429 -98.73316 12042 ft 293 kts 256°
2026-05-04 00:19 19.57953 -98.75395 11895 ft 286 kts 256°
2026-05-04 00:20 19.57488 -98.77422 11827 ft 281 kts 256°
2026-05-04 00:20 19.57023 -98.79427 11645 ft 279 kts 255°
2026-05-04 00:20 19.56570 -98.81409 11491 ft 274 kts 256°
2026-05-04 00:20 19.56121 -98.83355 11347 ft 270 kts 256°
2026-05-04 00:21 19.55640 -98.85261 11164 ft 264 kts 249°
2026-05-04 00:21 19.54837 -98.86967 10965 ft 255 kts 239°
2026-05-04 00:21 19.53903 -98.88549 10703 ft 250 kts 239°
2026-05-04 00:21 19.53017 -98.90119 10426 ft 247 kts 239°
2026-05-04 00:22 19.52149 -98.91683 10098 ft 246 kts 239°
2026-05-04 00:22 19.51294 -98.93209 9792 ft 231 kts 239°
2026-05-04 00:22 19.50516 -98.94600 9531 ft 207 kts 238°
2026-05-04 00:22 19.49806 -98.95888 9315 ft 200 kts 238°
2026-05-04 00:23 19.49105 -98.97135 9146 ft 195 kts 239°
2026-05-04 00:23 19.48416 -98.98361 9002 ft 193 kts 238°
2026-05-04 00:23 19.47736 -98.99586 8787 ft 192 kts 238°
2026-05-04 00:23 19.47059 -99.00802 8544 ft 191 kts 239°
2026-05-04 00:24 19.46408 -99.01974 8225 ft 179 kts 237°
2026-05-04 00:24 19.45773 -99.03097 7906 ft 176 kts 238°
2026-05-04 00:24 19.45167 -99.04210 7675 ft 172 kts 239°
2026-05-04 00:24 19.44562 -99.05244 8523 ft 156 kts 236°
2026-05-04 00:25 19.43988 -99.06177 9097 ft 158 kts 236°
2026-05-04 00:25 19.43319 -99.07303 9077 ft 201 kts 238°
2026-05-04 00:25 19.42732 -99.08736 9347 ft 222 kts 250°
2026-05-04 00:25 19.42080 -99.10121 9613 ft 239 kts 236°
2026-05-04 00:26 19.41148 -99.11606 10284 ft 241 kts 237°
2026-05-04 00:26 19.40232 -99.13133 10990 ft 246 kts 238°
2026-05-04 00:26 19.39266 -99.14625 11789 ft 249 kts 224°
2026-05-04 00:26 19.37741 -99.15502 12308 ft 257 kts 191°
2026-05-04 00:27 19.35986 -99.15344 12427 ft 257 kts 156°
2026-05-04 00:27 19.34627 -99.14148 12497 ft 259 kts 121°
2026-05-04 00:27 19.34100 -99.12334 12628 ft 262 kts 90°
2026-05-04 00:27 19.34433 -99.10467 12400 ft 261 kts 68°
2026-05-04 00:28 19.35070 -99.08652 12040 ft 264 kts 72°
2026-05-04 00:28 19.35644 -99.06807 11798 ft 264 kts 72°
2026-05-04 00:28 19.36215 -99.04944 11869 ft 267 kts 73°
2026-05-04 00:28 19.36776 -99.03085 12545 ft 261 kts 72°
2026-05-04 00:29 19.37330 -99.01247 12221 ft 267 kts 73°
2026-05-04 00:29 19.37879 -98.99386 12046 ft 262 kts 72°
2026-05-04 00:29 19.38436 -98.97534 11774 ft 264 kts 73°
2026-05-04 00:29 19.39053 -98.95709 11625 ft 262 kts 61°
2026-05-04 00:30 19.40208 -98.94262 11465 ft 256 kts 39°
2026-05-04 00:30 19.41593 -98.93059 11087 ft 260 kts 40°
2026-05-04 00:30 19.42997 -98.91806 10618 ft 269 kts 40°
2026-05-04 00:30 19.44611 -98.90750 9963 ft 280 kts 14°
2026-05-04 00:31 19.46545 -98.90772 9432 ft 282 kts 338°
2026-05-04 00:31 19.48127 -98.91903 9220 ft 273 kts 309°
2026-05-04 00:31 19.48840 -98.92986 9065 ft 266 kts 291°
2026-05-04 00:31 19.49215 -98.94757 9070 ft 231 kts 266°
2026-05-04 00:32 19.49013 -98.96323 9070 ft 199 kts 257°
2026-05-04 00:32 19.48770 -98.97675 9004 ft 177 kts 250°
2026-05-04 00:32 19.48224 -98.98800 8917 ft 170 kts 234°
2026-05-04 00:32 19.47593 -98.99839 8736 ft 165 kts 238°
2026-05-04 00:33 19.47023 -99.00867 8520 ft 159 kts 238°
2026-05-04 00:33 19.45883 -99.02904 7949 ft 163 kts 240°
2026-05-04 00:33 19.45311 -99.03923 7665 ft 160 kts 240°
2026-05-04 00:34 19.44745 -99.04929 7447 ft 159 kts 241°
2026-05-04 00:34 19.44196 -99.05915 7308 ft 146 kts 241°
2026-05-04 00:34 19.43742 -99.06729 7306 ft 105 kts 239°
2026-05-04 00:34 19.43458 -99.07234 7304 ft 58 kts 239°
2026-05-04 00:35 19.43295 -99.07526 7306 ft 30 kts 240°
2026-05-04 00:35 19.43189 -99.07638 7305 ft 17 kts 214°
2026-05-04 00:35 19.43107 -99.07690 7305 ft 9 kts 211°
2026-05-04 00:35 19.43078 -99.07708 7305 ft 4 kts 210°
2026-05-04 00:36 19.43058 -99.07720 7305 ft 3 kts 210°
2026-05-04 00:36 19.43044 -99.07729 7305 ft 2 kts 209°
2026-05-04 00:36 19.43014 -99.07746 7305 ft 8 kts 208°
2026-05-04 00:36 19.42952 -99.07781 7305 ft 12 kts 209°
2026-05-04 00:37 19.42876 -99.07826 7305 ft 13 kts 209°
2026-05-04 00:37 19.42791 -99.07875 7305 ft 15 kts 201°
2026-05-04 00:37 19.42697 -99.07846 7305 ft 15 kts 149°
2026-05-04 00:37 19.42613 -99.07822 7305 ft 7 kts 220°
2026-05-04 00:38 19.42593 -99.07858 7305 ft 8 kts 240°
2026-05-04 00:38 19.42554 -99.07929 7305 ft 13 kts 239°
2026-05-04 00:38 19.42509 -99.08011 7305 ft 13 kts 239°
2026-05-04 00:38 19.42464 -99.08091 7305 ft 13 kts 239°
2026-05-04 00:39 19.42419 -99.08172 7305 ft 13 kts 239°
2026-05-04 00:39 19.42344 -99.08199 7305 ft 12 kts 181°
2026-05-04 00:39 19.42279 -99.08193 7305 ft 8 kts 144°
2026-05-04 00:39 19.42256 -99.08159 7305 ft 5 kts 121°
2026-05-04 00:40 19.42246 -99.08143 7305 ft 2 kts 124°
2026-05-04 00:40 19.42240 -99.08133 7305 ft 1 kts 124°
2026-05-04 00:40 19.42238 -99.08131 7305 ft 0 kts 124°
2026-05-04 00:40 19.42238 -99.08130 7305 ft 0 kts 124°
2026-05-04 00:41 19.42238 -99.08131 7305 ft 0 kts 124°
2026-05-04 01:04 19.42239 -99.08131 7305 ft 0 kts 124°